Time,TemperatureF,DewpointF,PressureIn,WindDirection,WindDirectionDegrees,WindSpeedMPH,WindSpeedGustMPH,Humidity,HourlyPrecipIn,Conditions,Clouds,dailyrainin,SolarRadiationWatts/m^2,SoftwareType,DateUTC
2013-04-10 00:03:00,65.0,51.0,-100.00,NE,49,4.0,14.0,60,0.00,,,0.00,0.000000,,2013-04-10 04:03:00,
2013-04-10 00:10:00,62.0,48.0,-100.00,WSW,238,8.0,18.0,61,0.00,,,0.00,0.000000,,2013-04-10 04:10:00,
2013-04-10 00:33:00,62.0,48.0,-100.00,WSW,238,8.0,18.0,61,0.00,,,0.00,0.000000,,2013-04-10 04:33:00,
2013-04-10 00:43:00,62.0,48.0,-100.00,WSW,238,8.0,18.0,61,0.00,,,0.00,0.000000,,2013-04-10 04:43:00,
2013-04-10 00:53:00,62.0,48.0,-100.00,WSW,238,8.0,18.0,61,0.00,,,0.00,0.000000,,2013-04-10 04:53:00,
2013-04-10 01:03:00,62.0,48.0,-100.00,WSW,238,8.0,18.0,61,0.00,,,0.00,0.000000,,2013-04-10 05:03:00,
2013-04-10 01:10:00,63.0,51.0,-100.00,ESE,106,3.0,9.0,65,0.00,,,0.00,0.000000,,2013-04-10 05:10:00,
2013-04-10 01:33:00,63.0,51.0,-100.00,ESE,106,3.0,9.0,65,0.00,,,0.00,0.000000,,2013-04-10 05:33:00,
2013-04-10 01:43:00,63.0,51.0,-100.00,ESE,106,3.0,9.0,65,0.00,,,0.00,0.000000,,2013-04-10 05:43:00,
2013-04-10 01:53:00,63.0,51.0,-100.00,ESE,106,3.0,9.0,65,0.00,,,0.00,0.000000,,2013-04-10 05:53:00,
2013-04-10 02:03:00,63.0,51.0,-100.00,ESE,106,3.0,9.0,65,0.00,,,0.00,0.000000,,2013-04-10 06:03:00,
2013-04-10 02:10:00,61.0,50.0,-100.00,NW,322,2.0,6.0,67,0.00,,,0.00,0.000000,,2013-04-10 06:10:00,
2013-04-10 02:43:00,61.0,50.0,-100.00,NW,322,2.0,6.0,67,0.00,,,0.00,0.000000,,2013-04-10 06:43:00,
2013-04-10 02:52:00,61.0,50.0,-100.00,NW,322,2.0,6.0,67,0.00,,,0.00,0.000000,,2013-04-10 06:52:00,
2013-04-10 03:02:00,61.0,50.0,-100.00,NW,322,2.0,6.0,67,0.00,,,0.00,0.000000,,2013-04-10 07:02:00,
2013-04-10 03:10:00,57.0,48.0,-100.00,SSW,194,3.0,5.0,73,0.00,,,0.00,0.000000,,2013-04-10 07:10:00,
2013-04-10 03:43:00,57.0,48.0,-100.00,SSW,194,3.0,5.0,73,0.00,,,0.00,0.000000,,2013-04-10 07:43:00,
2013-04-10 03:52:00,57.0,48.0,-100.00,SSW,194,3.0,5.0,73,0.00,,,0.00,0.000000,,2013-04-10 07:52:00,
2013-04-10 04:02:00,57.0,48.0,-100.00,SSW,194,3.0,5.0,73,0.00,,,0.00,0.000000,,2013-04-10 08:02:00,
2013-04-10 04:10:00,53.0,48.0,-100.00,West,265,2.0,3.0,82,0.00,,,0.00,0.000000,,2013-04-10 08:10:00,
2013-04-10 04:43:00,53.0,48.0,-100.00,West,265,2.0,3.0,82,0.00,,,0.00,0.000000,,2013-04-10 08:43:00,
2013-04-10 04:52:00,53.0,48.0,-100.00,West,265,2.0,3.0,82,0.00,,,0.00,0.000000,,2013-04-10 08:52:00,
2013-04-10 05:02:00,53.0,48.0,-100.00,West,265,2.0,3.0,82,0.00,,,0.00,0.000000,,2013-04-10 09:02:00,
2013-04-10 05:10:00,58.0,54.0,-100.00,East,82,1.0,5.0,86,0.00,,,0.00,0.000000,,2013-04-10 09:10:00,
2013-04-10 05:43:00,58.0,54.0,-100.00,East,82,1.0,5.0,86,0.00,,,0.00,0.000000,,2013-04-10 09:43:00,
2013-04-10 05:53:00,58.0,54.0,-100.00,East,82,1.0,5.0,86,0.00,,,0.00,0.000000,,2013-04-10 09:53:00,
2013-04-10 06:03:00,58.0,54.0,-100.00,East,82,1.0,5.0,86,0.00,,,0.00,0.000000,,2013-04-10 10:03:00,
2013-04-10 06:10:00,53.0,46.0,-100.00,SW,224,1.0,3.0,77,0.00,,,0.00,0.000000,,2013-04-10 10:10:00,
2013-04-10 06:33:00,53.0,46.0,-100.00,SW,224,1.0,3.0,77,0.00,,,0.00,0.000000,,2013-04-10 10:33:00,
2013-04-10 06:43:00,53.0,46.0,-100.00,SW,224,1.0,3.0,77,0.00,,,0.00,0.000000,,2013-04-10 10:43:00,
2013-04-10 06:53:00,53.0,46.0,-100.00,SW,224,1.0,3.0,77,0.00,,,0.00,0.000000,,2013-04-10 10:53:00,
2013-04-10 07:03:00,53.0,46.0,-100.00,SW,224,1.0,3.0,77,0.00,,,0.00,0.000000,,2013-04-10 11:03:00,
2013-04-10 09:10:00,55.0,53.0,-100.00,NE,39,2.0,7.0,92,-99.99,,,0.00,81.000000,,2013-04-10 13:10:00,
2013-04-10 09:33:00,55.0,53.0,-100.00,NE,39,2.0,7.0,92,-99.99,,,0.00,81.000000,,2013-04-10 13:33:00,
2013-04-10 09:43:00,55.0,53.0,-100.00,NE,39,2.0,7.0,92,-99.99,,,0.00,81.000000,,2013-04-10 13:43:00,
2013-04-10 09:53:00,55.0,53.0,-100.00,NE,39,2.0,7.0,92,-99.99,,,0.00,81.000000,,2013-04-10 13:53:00,
2013-04-10 10:02:00,55.0,53.0,-100.00,NE,39,2.0,7.0,92,-99.99,,,0.00,81.000000,,2013-04-10 14:02:00,
2013-04-10 10:10:00,68.0,62.0,-100.00,NNE,33,4.0,8.0,82,0.00,,,0.00,267.000000,,2013-04-10 14:10:00,
2013-04-10 10:33:00,68.0,62.0,-100.00,NNE,33,4.0,8.0,82,0.00,,,0.00,267.000000,,2013-04-10 14:33:00,
2013-04-10 10:42:00,68.0,62.0,-100.00,NNE,33,4.0,8.0,82,0.00,,,0.00,267.000000,,2013-04-10 14:42:00,
2013-04-10 10:52:00,68.0,62.0,-100.00,NNE,33,4.0,8.0,82,0.00,,,0.00,267.000000,,2013-04-10 14:52:00,
2013-04-10 11:03:00,68.0,62.0,-100.00,NNE,33,4.0,8.0,82,0.00,,,0.00,267.000000,,2013-04-10 15:03:00,
2013-04-10 12:10:00,74.0,51.0,-100.00,East,90,4.0,12.0,45,-99.99,,,0.00,656.000000,,2013-04-10 16:10:00,
2013-04-10 12:33:00,74.0,51.0,-100.00,East,90,4.0,12.0,45,-99.99,,,0.00,656.000000,,2013-04-10 16:33:00,
2013-04-10 12:43:00,74.0,51.0,-100.00,East,90,4.0,12.0,45,-99.99,,,0.00,656.000000,,2013-04-10 16:43:00,
2013-04-10 12:53:00,74.0,51.0,-100.00,East,90,4.0,12.0,45,-99.99,,,0.00,656.000000,,2013-04-10 16:53:00,
2013-04-10 13:03:00,74.0,51.0,-100.00,East,90,4.0,12.0,45,-99.99,,,0.00,656.000000,,2013-04-10 17:03:00,
2013-04-10 13:10:00,78.0,52.0,-100.00,ENE,78,4.0,14.0,41,0.00,,,0.00,733.000000,,2013-04-10 17:10:00,
2013-04-10 13:34:00,78.0,52.0,-100.00,ENE,78,4.0,14.0,41,0.00,,,0.00,733.000000,,2013-04-10 17:34:00,
2013-04-10 13:43:00,78.0,52.0,-100.00,ENE,78,4.0,14.0,41,0.00,,,0.00,733.000000,,2013-04-10 17:43:00,
2013-04-10 13:53:00,78.0,52.0,-100.00,ENE,78,4.0,14.0,41,0.00,,,0.00,733.000000,,2013-04-10 17:53:00,
2013-04-10 14:03:00,78.0,52.0,-100.00,ENE,78,4.0,14.0,41,0.00,,,0.00,733.000000,,2013-04-10 18:03:00,
2013-04-10 14:10:00,78.0,52.0,-100.00,ESE,116,5.0,18.0,41,0.00,,,0.00,625.000000,,2013-04-10 18:10:00,
2013-04-10 14:43:00,78.0,52.0,-100.00,ESE,116,5.0,18.0,41,0.00,,,0.00,625.000000,,2013-04-10 18:43:00,
2013-04-10 14:53:00,78.0,52.0,-100.00,ESE,116,5.0,18.0,41,0.00,,,0.00,625.000000,,2013-04-10 18:53:00,
2013-04-10 15:03:00,78.0,52.0,-100.00,ESE,116,5.0,18.0,41,0.00,,,0.00,625.000000,,2013-04-10 19:03:00,
2013-04-10 15:10:00,77.0,50.0,-100.00,SSE,166,8.0,21.0,39,0.00,,,0.00,803.000000,,2013-04-10 19:10:00,
2013-04-10 15:42:00,77.0,50.0,-100.00,SSE,166,8.0,21.0,39,0.00,,,0.00,803.000000,,2013-04-10 19:42:00,
2013-04-10 15:53:00,77.0,50.0,-100.00,SSE,166,8.0,21.0,39,0.00,,,0.00,803.000000,,2013-04-10 19:53:00,
2013-04-10 16:03:00,77.0,50.0,-100.00,SSE,166,8.0,21.0,39,0.00,,,0.00,803.000000,,2013-04-10 20:03:00,
2013-04-10 16:10:00,77.0,49.0,-100.00,South,175,12.0,24.0,37,0.00,,,0.00,789.000000,,2013-04-10 20:10:00,
2013-04-10 16:33:00,77.0,49.0,-100.00,South,175,12.0,24.0,37,0.00,,,0.00,789.000000,,2013-04-10 20:33:00,
2013-04-10 16:43:00,77.0,49.0,-100.00,South,175,12.0,24.0,37,0.00,,,0.00,789.000000,,2013-04-10 20:43:00,
2013-04-10 16:53:00,77.0,49.0,-100.00,South,175,12.0,24.0,37,0.00,,,0.00,789.000000,,2013-04-10 20:53:00,
2013-04-10 17:03:00,77.0,49.0,-100.00,South,175,12.0,24.0,37,0.00,,,0.00,789.000000,,2013-04-10 21:03:00,
2013-04-10 17:10:00,79.0,50.0,-100.00,South,170,10.0,22.0,36,0.00,,,0.00,785.000000,,2013-04-10 21:10:00,
2013-04-10 17:43:00,79.0,50.0,-100.00,South,170,10.0,22.0,36,0.00,,,0.00,785.000000,,2013-04-10 21:43:00,
2013-04-10 17:53:00,79.0,50.0,-100.00,South,170,10.0,22.0,36,0.00,,,0.00,785.000000,,2013-04-10 21:53:00,
2013-04-10 18:03:00,79.0,50.0,-100.00,South,170,10.0,22.0,36,0.00,,,0.00,785.000000,,2013-04-10 22:03:00,
2013-04-10 18:10:00,78.0,49.0,-100.00,South,169,11.0,23.0,36,0.00,,,0.00,450.000000,,2013-04-10 22:10:00,
2013-04-10 18:34:00,78.0,49.0,-100.00,South,169,11.0,23.0,36,0.00,,,0.00,450.000000,,2013-04-10 22:34:00,
2013-04-10 18:43:00,78.0,49.0,-100.00,South,169,11.0,23.0,36,0.00,,,0.00,450.000000,,2013-04-10 22:43:00,
2013-04-10 18:53:00,78.0,49.0,-100.00,South,169,11.0,23.0,36,0.00,,,0.00,450.000000,,2013-04-10 22:53:00,
2013-04-10 19:03:00,78.0,49.0,-100.00,South,169,11.0,23.0,36,0.00,,,0.00,450.000000,,2013-04-10 23:03:00,
2013-04-10 19:10:00,75.0,49.0,-100.00,SSE,166,13.0,26.0,40,0.00,,,0.00,223.000000,,2013-04-10 23:10:00,
2013-04-10 19:33:00,75.0,49.0,-100.00,SSE,166,13.0,26.0,40,0.00,,,0.00,223.000000,,2013-04-10 23:33:00,
2013-04-10 19:43:00,75.0,49.0,-100.00,SSE,166,13.0,26.0,40,0.00,,,0.00,223.000000,,2013-04-10 23:43:00,
2013-04-10 19:53:00,75.0,49.0,-100.00,SSE,166,13.0,26.0,40,0.00,,,0.00,223.000000,,2013-04-10 23:53:00,
2013-04-10 20:02:00,75.0,49.0,-100.00,SSE,166,13.0,26.0,40,0.00,,,0.00,223.000000,,2013-04-11 00:02:00,
2013-04-10 20:10:00,70.0,48.0,-100.00,South,177,12.0,22.0,46,0.00,,,0.00,36.000000,,2013-04-11 00:10:00,
2013-04-10 20:43:00,70.0,48.0,-100.00,South,177,12.0,22.0,46,0.00,,,0.00,36.000000,,2013-04-11 00:43:00,
2013-04-10 20:53:00,70.0,48.0,-100.00,South,177,12.0,22.0,46,0.00,,,0.00,36.000000,,2013-04-11 00:53:00,
2013-04-10 21:02:00,70.0,48.0,-100.00,South,177,12.0,22.0,46,0.00,,,0.00,36.000000,,2013-04-11 01:02:00,
2013-04-10 21:10:00,68.0,50.0,-100.00,South,175,8.0,18.0,52,0.00,,,0.00,0.000000,,2013-04-11 01:10:00,
2013-04-10 21:42:00,68.0,50.0,-100.00,South,175,8.0,18.0,52,0.00,,,0.00,0.000000,,2013-04-11 01:42:00,
2013-04-10 21:52:00,68.0,50.0,-100.00,South,175,8.0,18.0,52,0.00,,,0.00,0.000000,,2013-04-11 01:52:00,
2013-04-10 22:03:00,68.0,50.0,-100.00,South,175,8.0,18.0,52,0.00,,,0.00,0.000000,,2013-04-11 02:03:00,
2013-04-10 22:10:00,66.0,50.0,-100.00,ENE,75,5.0,14.0,57,0.00,,,0.00,0.000000,,2013-04-11 02:10:00,
2013-04-10 22:53:00,66.0,50.0,-100.00,ENE,75,5.0,14.0,57,0.00,,,0.00,0.000000,,2013-04-11 02:53:00,
2013-04-10 23:02:00,66.0,50.0,-100.00,ENE,75,5.0,14.0,57,0.00,,,0.00,0.000000,,2013-04-11 03:02:00,
2013-04-10 23:10:00,65.0,51.0,-100.00,SSE,159,6.0,13.0,61,0.00,,,0.00,0.000000,,2013-04-11 03:10:00,
2013-04-10 23:43:00,65.0,51.0,-100.00,SSE,159,6.0,13.0,61,0.00,,,0.00,0.000000,,2013-04-11 03:43:00,
2013-04-10 23:54:00,65.0,51.0,-100.00,SSE,159,6.0,13.0,61,0.00,,,0.00,0.000000,,2013-04-11 03:54:00,